BEIDOU-3 M22

Last updated on Thu Oct 30 2025 00:02:36 GMT+0000 (Coordinated Universal Time)

1 44793U 19078A 25302.19239676 -.00000025 00000+0 00000+0 0 9993 2 44793 54.1484 307.9494 0004926 22.2849 337.7627 1.86232095 40341
UTC large
Height (km)
Speed (km/s)
/
Latitude / Longitude
Inclination (degrees)
Orbital Period (minutes)
Azimuth
Elevation
Range (km)
Doppler Factor

Next 0 passes for location: London (51.5072 / 0.1276)

Sorry there are no passes over London.